Year,Month,Day,Hour,Minute,Value (Times are PST for windgust in km/hr)
2006,01,30,00,00,12.90
2006,01,30,00,01,11.30
2006,01,30,00,02,11.30
2006,01,30,00,03,14.50
2006,01,30,00,04,9.60
2006,01,30,00,05,24.20
2006,01,30,00,06,17.70
2006,01,30,00,07,14.50
2006,01,30,00,08,14.50
2006,01,30,00,09,14.50
2006,01,30,00,10,19.30
2006,01,30,00,11,20.90
2006,01,30,00,12,12.90
2006,01,30,00,13,19.30
2006,01,30,00,14,19.30
2006,01,30,00,15,16.10
2006,01,30,00,16,16.10
2006,01,30,00,17,11.30
2006,01,30,00,18,11.30
2006,01,30,00,19,16.10
2006,01,30,00,20,9.60
2006,01,30,00,21,16.10
2006,01,30,00,22,8.10
2006,01,30,00,23,6.40
2006,01,30,00,24,11.30
2006,01,30,00,25,8.10
2006,01,30,00,26,9.60
2006,01,30,00,27,6.40
2006,01,30,00,28,14.50
2006,01,30,00,29,8.10
2006,01,30,00,30,6.40
2006,01,30,00,31,6.40
2006,01,30,00,32,9.60
2006,01,30,00,33,9.60
2006,01,30,00,34,9.60
2006,01,30,00,35,6.40
2006,01,30,00,36,8.10
2006,01,30,00,37,8.10
2006,01,30,00,38,6.40
2006,01,30,00,39,3.20
2006,01,30,00,40,8.10
2006,01,30,00,41,8.10
2006,01,30,00,42,8.10
2006,01,30,00,43,9.60
2006,01,30,00,44,8.10
2006,01,30,00,45,16.10
2006,01,30,00,46,8.10
2006,01,30,00,47,8.10
2006,01,30,00,48,3.20
2006,01,30,00,49,6.40
2006,01,30,00,50,6.40
2006,01,30,00,51,14.50
2006,01,30,00,52,6.40
2006,01,30,00,53,9.60
2006,01,30,00,54,11.30
2006,01,30,00,55,9.60
2006,01,30,00,56,16.10
2006,01,30,00,57,4.80
2006,01,30,00,58,11.30
2006,01,30,00,59,8.10
2006,01,30,01,00,3.20
2006,01,30,01,01,4.80
2006,01,30,01,02,11.30
2006,01,30,01,03,8.10
2006,01,30,01,04,6.40
2006,01,30,01,05,6.40
2006,01,30,01,06,4.80
2006,01,30,01,07,3.20
2006,01,30,01,08,3.20
2006,01,30,01,09,11.30
2006,01,30,01,10,6.40
2006,01,30,01,11,4.80
2006,01,30,01,12,6.40
2006,01,30,01,13,1.60
2006,01,30,01,14,8.10
2006,01,30,01,15,11.30
2006,01,30,01,16,3.20
2006,01,30,01,17,1.60
2006,01,30,01,18,6.40
2006,01,30,01,19,6.40
2006,01,30,01,20,6.40
2006,01,30,01,21,6.40
2006,01,30,01,22,4.80
2006,01,30,01,23,4.80
2006,01,30,01,24,8.10
2006,01,30,01,25,11.30
2006,01,30,01,26,8.10
2006,01,30,01,27,4.80
2006,01,30,01,28,6.40
2006,01,30,01,29,14.50
2006,01,30,01,30,9.60
2006,01,30,01,31,8.10
2006,01,30,01,32,11.30
2006,01,30,01,33,4.80
2006,01,30,01,34,8.10
2006,01,30,01,35,8.10
2006,01,30,01,36,11.30
2006,01,30,01,37,6.40
2006,01,30,01,38,8.10
2006,01,30,01,39,9.60
2006,01,30,01,40,11.30
2006,01,30,01,41,9.60
2006,01,30,01,42,16.10
2006,01,30,01,43,11.30
2006,01,30,01,44,9.60
2006,01,30,01,45,9.60
2006,01,30,01,46,11.30
2006,01,30,01,47,9.60
2006,01,30,01,48,20.90
2006,01,30,01,49,14.50
2006,01,30,01,50,8.10
2006,01,30,01,51,8.10
2006,01,30,01,52,11.30
2006,01,30,01,53,8.10
2006,01,30,01,54,9.60
2006,01,30,01,55,9.60
2006,01,30,01,56,16.10
2006,01,30,01,57,12.90
2006,01,30,01,58,17.70
2006,01,30,01,59,11.30
2006,01,30,02,00,8.10
2006,01,30,02,01,6.40
2006,01,30,02,02,8.10
2006,01,30,02,03,4.80
2006,01,30,02,04,9.60
2006,01,30,02,05,6.40
2006,01,30,02,06,8.10
2006,01,30,02,07,3.20
2006,01,30,02,08,6.40
2006,01,30,02,09,9.60
2006,01,30,02,10,6.40
2006,01,30,02,11,4.80
2006,01,30,02,12,6.40
2006,01,30,02,13,4.80
2006,01,30,02,14,3.20
2006,01,30,02,15,8.10
2006,01,30,02,16,6.40
2006,01,30,02,17,4.80
2006,01,30,02,18,4.80
2006,01,30,02,19,6.40
2006,01,30,02,20,6.40
2006,01,30,02,21,6.40
2006,01,30,02,22,4.80
2006,01,30,02,23,6.40
2006,01,30,02,24,6.40
2006,01,30,02,25,6.40
2006,01,30,02,26,8.10
2006,01,30,02,27,9.60
2006,01,30,02,28,11.30
2006,01,30,02,29,9.60
2006,01,30,02,30,11.30
2006,01,30,02,31,11.30
2006,01,30,02,32,6.40
2006,01,30,02,33,8.10
2006,01,30,02,34,8.10
2006,01,30,02,35,9.60
2006,01,30,02,36,14.50
2006,01,30,02,37,4.80
2006,01,30,02,38,6.40
2006,01,30,02,39,16.10
2006,01,30,02,40,8.10
2006,01,30,02,41,8.10
2006,01,30,02,42,8.10
2006,01,30,02,43,8.10
2006,01,30,02,44,4.80
2006,01,30,02,45,11.30
2006,01,30,02,46,9.60
2006,01,30,02,47,9.60
2006,01,30,02,48,9.60
2006,01,30,02,49,11.30
2006,01,30,02,50,3.20
2006,01,30,02,51,9.60
2006,01,30,02,52,11.30
2006,01,30,02,53,4.80
2006,01,30,02,54,9.60
2006,01,30,02,55,8.10
2006,01,30,02,56,6.40
2006,01,30,02,57,3.20
2006,01,30,02,58,17.70
2006,01,30,02,59,6.40
2006,01,30,03,00,8.10
2006,01,30,03,01,9.60
2006,01,30,03,02,12.90
2006,01,30,03,03,8.10
2006,01,30,03,04,11.30
2006,01,30,03,05,8.10
2006,01,30,03,06,9.60
2006,01,30,03,07,12.90
2006,01,30,03,08,6.40
2006,01,30,03,09,16.10
2006,01,30,03,10,14.50
2006,01,30,03,11,11.30
2006,01,30,03,12,8.10
2006,01,30,03,13,8.10
2006,01,30,03,14,8.10
2006,01,30,03,15,6.40
2006,01,30,03,16,6.40
2006,01,30,03,17,6.40
2006,01,30,03,18,14.50
2006,01,30,03,19,16.10
2006,01,30,03,20,14.50
2006,01,30,03,21,8.10
2006,01,30,03,22,9.60
2006,01,30,03,23,3.20
2006,01,30,03,24,6.40
2006,01,30,03,25,8.10
2006,01,30,03,26,6.40
2006,01,30,03,27,9.60
2006,01,30,03,28,8.10
2006,01,30,03,29,11.30
2006,01,30,03,30,9.60
2006,01,30,03,31,9.60
2006,01,30,03,32,6.40
2006,01,30,03,33,8.10
2006,01,30,03,34,8.10
2006,01,30,03,35,12.90
2006,01,30,03,36,11.30
2006,01,30,03,37,8.10
2006,01,30,03,38,9.60
2006,01,30,03,39,3.20
2006,01,30,03,40,8.10
2006,01,30,03,41,4.80
2006,01,30,03,42,0.00
2006,01,30,03,43,4.80
2006,01,30,03,44,3.20
2006,01,30,03,45,6.40
2006,01,30,03,46,4.80
2006,01,30,03,47,4.80
2006,01,30,03,48,3.20
2006,01,30,03,49,4.80
2006,01,30,03,50,6.40
2006,01,30,03,51,3.20
2006,01,30,03,52,1.60
2006,01,30,03,53,6.40
2006,01,30,03,54,4.80
2006,01,30,03,55,4.80
2006,01,30,03,56,4.80
2006,01,30,03,57,4.80
2006,01,30,03,58,8.10
2006,01,30,03,59,6.40
2006,01,30,04,00,6.40
2006,01,30,04,01,4.80
2006,01,30,04,02,8.10
2006,01,30,04,03,4.80
2006,01,30,04,04,4.80
2006,01,30,04,05,8.10
2006,01,30,04,06,4.80
2006,01,30,04,07,9.60
2006,01,30,04,08,8.10
2006,01,30,04,09,8.10
2006,01,30,04,10,11.30
2006,01,30,04,11,8.10
2006,01,30,04,12,8.10
2006,01,30,04,13,4.80
2006,01,30,04,14,9.60
2006,01,30,04,15,9.60
2006,01,30,04,16,9.60
2006,01,30,04,17,4.80
2006,01,30,04,18,11.30
2006,01,30,04,19,8.10
2006,01,30,04,20,16.10
2006,01,30,04,21,14.50
2006,01,30,04,22,11.30
2006,01,30,04,23,9.60
2006,01,30,04,24,8.10
2006,01,30,04,25,8.10
2006,01,30,04,26,6.40
2006,01,30,04,27,8.10
2006,01,30,04,28,11.30
2006,01,30,04,29,6.40
2006,01,30,04,30,6.40
2006,01,30,04,31,8.10
2006,01,30,04,32,8.10
2006,01,30,04,33,4.80
2006,01,30,04,34,9.60
2006,01,30,04,35,12.90
2006,01,30,04,36,4.80
2006,01,30,04,37,6.40
2006,01,30,04,38,6.40
2006,01,30,04,39,8.10
2006,01,30,04,40,6.40
2006,01,30,04,41,3.20
2006,01,30,04,42,1.60
2006,01,30,04,43,16.10
2006,01,30,04,44,6.40
2006,01,30,04,45,4.80
2006,01,30,04,46,8.10
2006,01,30,04,47,9.60
2006,01,30,04,48,11.30
2006,01,30,04,49,12.90
2006,01,30,04,50,8.10
2006,01,30,04,51,11.30
2006,01,30,04,52,9.60
2006,01,30,04,53,4.80
2006,01,30,04,54,8.10
2006,01,30,04,55,14.50
2006,01,30,04,56,8.10
2006,01,30,04,57,8.10
2006,01,30,04,58,14.50
2006,01,30,04,59,11.30
2006,01,30,05,00,8.10
2006,01,30,05,01,8.10
2006,01,30,05,02,8.10
2006,01,30,05,03,9.60
2006,01,30,05,04,8.10
2006,01,30,05,05,6.40
2006,01,30,05,06,9.60
2006,01,30,05,07,9.60
2006,01,30,05,08,8.10
2006,01,30,05,09,9.60
2006,01,30,05,10,8.10
2006,01,30,05,11,14.50
2006,01,30,05,12,8.10
2006,01,30,05,13,17.70
2006,01,30,05,14,14.50
2006,01,30,05,15,16.10
2006,01,30,05,16,20.90
2006,01,30,05,17,16.10
2006,01,30,05,18,16.10
2006,01,30,05,19,11.30
2006,01,30,05,20,9.60
2006,01,30,05,21,20.90
2006,01,30,05,22,11.30
2006,01,30,05,23,11.30
2006,01,30,05,24,9.60
2006,01,30,05,25,9.60
2006,01,30,05,26,8.10
2006,01,30,05,27,11.30
2006,01,30,05,28,8.10
2006,01,30,05,29,6.40
2006,01,30,05,30,6.40
2006,01,30,05,31,9.60
2006,01,30,05,32,6.40
2006,01,30,05,33,6.40
2006,01,30,05,34,8.10
2006,01,30,05,35,6.40
2006,01,30,05,36,6.40
2006,01,30,05,37,14.50
2006,01,30,05,38,12.90
2006,01,30,05,39,8.10
2006,01,30,05,40,8.10
2006,01,30,05,41,11.30
2006,01,30,05,42,8.10
2006,01,30,05,43,9.60
2006,01,30,05,44,4.80
2006,01,30,05,45,4.80
2006,01,30,05,46,17.70
2006,01,30,05,47,9.60
2006,01,30,05,48,8.10
2006,01,30,05,49,8.10
2006,01,30,05,50,11.30
2006,01,30,05,51,9.60
2006,01,30,05,52,8.10
2006,01,30,05,53,6.40
2006,01,30,05,54,9.60
2006,01,30,05,55,4.80
2006,01,30,05,56,11.30
2006,01,30,05,57,16.10
2006,01,30,05,58,11.30
2006,01,30,05,59,9.60
2006,01,30,06,00,8.10
2006,01,30,06,01,12.90
2006,01,30,06,02,19.30
2006,01,30,06,03,9.60
2006,01,30,06,04,16.10
2006,01,30,06,05,16.10
2006,01,30,06,06,11.30
2006,01,30,06,07,20.90
2006,01,30,06,08,16.10
2006,01,30,06,09,9.60
2006,01,30,06,10,19.30
2006,01,30,06,11,9.60
2006,01,30,06,12,9.60
2006,01,30,06,13,22.50
2006,01,30,06,14,12.90
2006,01,30,06,15,20.90
2006,01,30,06,16,20.90
2006,01,30,06,17,11.30
2006,01,30,06,18,12.90
2006,01,30,06,19,8.10
2006,01,30,06,20,8.10
2006,01,30,06,21,9.60
2006,01,30,06,22,9.60
2006,01,30,06,23,9.60
2006,01,30,06,24,8.10
2006,01,30,06,25,4.80
2006,01,30,06,26,14.50
2006,01,30,06,27,8.10
2006,01,30,06,28,4.80
2006,01,30,06,29,4.80
2006,01,30,06,30,9.60
2006,01,30,06,31,9.60
2006,01,30,06,32,17.70
2006,01,30,06,33,14.50
2006,01,30,06,34,11.30
2006,01,30,06,35,19.30
2006,01,30,06,36,11.30
2006,01,30,06,37,20.90
2006,01,30,06,38,16.10
2006,01,30,06,39,11.30
2006,01,30,06,40,9.60
2006,01,30,06,41,6.40
2006,01,30,06,42,14.50
2006,01,30,06,43,9.60
2006,01,30,06,44,8.10
2006,01,30,06,45,22.50
2006,01,30,06,46,20.90
2006,01,30,06,47,16.10
2006,01,30,06,48,16.10
2006,01,30,06,49,17.70
2006,01,30,06,50,17.70
2006,01,30,06,51,16.10
2006,01,30,06,52,16.10
2006,01,30,06,53,11.30
2006,01,30,06,54,25.70
2006,01,30,06,55,17.70
2006,01,30,06,56,17.70
2006,01,30,06,57,11.30
2006,01,30,06,58,25.70
2006,01,30,06,59,20.90
2006,01,30,07,00,19.30
2006,01,30,07,01,20.90
2006,01,30,07,02,25.70
2006,01,30,07,03,20.90
2006,01,30,07,04,17.70
2006,01,30,07,05,19.30
2006,01,30,07,06,17.70
2006,01,30,07,07,16.10
2006,01,30,07,08,17.70
2006,01,30,07,09,19.30
2006,01,30,07,10,9.60
2006,01,30,07,11,11.30
2006,01,30,07,12,16.10
2006,01,30,07,13,17.70
2006,01,30,07,14,11.30
2006,01,30,07,15,17.70
2006,01,30,07,16,14.50
2006,01,30,07,17,17.70
2006,01,30,07,18,24.20
2006,01,30,07,19,11.30
2006,01,30,07,20,16.10
2006,01,30,07,21,17.70
2006,01,30,07,22,14.50
2006,01,30,07,23,16.10
2006,01,30,07,24,20.90
2006,01,30,07,25,19.30
2006,01,30,07,26,11.30
2006,01,30,07,27,14.50
2006,01,30,07,28,16.10
2006,01,30,07,29,11.30
2006,01,30,07,30,19.30
2006,01,30,07,31,17.70
2006,01,30,07,32,22.50
2006,01,30,07,33,19.30
2006,01,30,07,34,20.90
2006,01,30,07,35,19.30
2006,01,30,07,36,24.20
2006,01,30,07,37,19.30
2006,01,30,07,38,25.70
2006,01,30,07,39,20.90
2006,01,30,07,40,19.30
2006,01,30,07,41,19.30
2006,01,30,07,42,16.10
2006,01,30,07,43,20.90
2006,01,30,07,44,14.50
2006,01,30,07,45,16.10
2006,01,30,07,46,19.30
2006,01,30,07,47,16.10
2006,01,30,07,48,9.60
2006,01,30,07,49,11.30
2006,01,30,07,50,20.90
2006,01,30,07,51,17.70
2006,01,30,07,52,14.50
2006,01,30,07,53,16.10
2006,01,30,07,54,20.90
2006,01,30,07,55,17.70
2006,01,30,07,56,17.70
2006,01,30,07,57,16.10
2006,01,30,07,58,17.70
2006,01,30,07,59,16.10
2006,01,30,08,00,14.50
2006,01,30,08,01,14.50
2006,01,30,08,02,9.60
2006,01,30,08,03,8.10
2006,01,30,08,04,14.50
2006,01,30,08,05,14.50
2006,01,30,08,06,9.60
2006,01,30,08,07,8.10
2006,01,30,08,08,9.60
2006,01,30,08,09,11.30
2006,01,30,08,10,12.90
2006,01,30,08,11,14.50
2006,01,30,08,12,9.60
2006,01,30,08,13,6.40
2006,01,30,08,14,9.60
2006,01,30,08,15,11.30
2006,01,30,08,16,8.10
2006,01,30,08,17,20.90
2006,01,30,08,18,16.10
2006,01,30,08,19,11.30
2006,01,30,08,20,6.40
2006,01,30,08,21,8.10
2006,01,30,08,22,11.30
2006,01,30,08,23,11.30
2006,01,30,08,24,22.50
2006,01,30,08,25,8.10
2006,01,30,08,26,11.30
2006,01,30,08,27,9.60
2006,01,30,08,28,8.10
2006,01,30,08,29,8.10
2006,01,30,08,30,11.30
2006,01,30,08,31,14.50
2006,01,30,08,32,9.60
2006,01,30,08,33,16.10
2006,01,30,08,34,16.10
2006,01,30,08,35,16.10
2006,01,30,08,36,6.40
2006,01,30,08,37,11.30
2006,01,30,08,38,9.60
2006,01,30,08,39,14.50
2006,01,30,08,40,6.40
2006,01,30,08,41,11.30
2006,01,30,08,42,11.30
2006,01,30,08,43,9.60
2006,01,30,08,44,8.10
2006,01,30,08,45,11.30
2006,01,30,08,46,12.90
2006,01,30,08,47,6.40
2006,01,30,08,48,11.30
2006,01,30,08,49,8.10
2006,01,30,08,50,6.40
2006,01,30,08,51,6.40
2006,01,30,08,52,6.40
2006,01,30,08,53,14.50
2006,01,30,08,54,16.10
2006,01,30,08,55,9.60
2006,01,30,08,56,8.10
2006,01,30,08,57,19.30
2006,01,30,08,58,20.90
2006,01,30,08,59,8.10
2006,01,30,09,00,16.10
2006,01,30,09,01,16.10
2006,01,30,09,02,14.50
2006,01,30,09,03,9.60
2006,01,30,09,04,17.70
2006,01,30,09,05,19.30
2006,01,30,09,06,17.70
2006,01,30,09,07,14.50
2006,01,30,09,08,27.40
2006,01,30,09,09,17.70
2006,01,30,09,10,9.60
2006,01,30,09,11,22.50
2006,01,30,09,12,25.70
2006,01,30,09,13,19.30
2006,01,30,09,14,24.20
2006,01,30,09,15,25.70
2006,01,30,09,16,25.70
2006,01,30,09,17,25.70
2006,01,30,09,18,19.30
2006,01,30,09,19,25.70
2006,01,30,09,20,27.40
2006,01,30,09,21,20.90
2006,01,30,09,22,17.70
2006,01,30,09,23,19.30
2006,01,30,09,24,22.50
2006,01,30,09,25,24.20
2006,01,30,09,26,14.50
2006,01,30,09,27,9.60
2006,01,30,09,28,14.50
2006,01,30,09,29,9.60
2006,01,30,09,30,24.20
2006,01,30,09,31,17.70
2006,01,30,09,32,19.30
2006,01,30,09,33,11.30
2006,01,30,09,34,17.70
2006,01,30,09,35,11.30
2006,01,30,09,36,19.30
2006,01,30,09,37,14.50
2006,01,30,09,38,11.30
2006,01,30,09,39,16.10
2006,01,30,09,40,14.50
2006,01,30,09,41,11.30
2006,01,30,09,42,22.50
2006,01,30,09,43,19.30
2006,01,30,09,44,20.90
2006,01,30,09,45,22.50
2006,01,30,09,46,25.70
2006,01,30,09,47,20.90
2006,01,30,09,48,16.10
2006,01,30,09,49,30.60
2006,01,30,09,50,27.40
2006,01,30,09,51,16.10
2006,01,30,09,52,12.90
2006,01,30,09,53,9.60
2006,01,30,09,54,14.50
2006,01,30,09,55,17.70
2006,01,30,09,56,20.90
2006,01,30,09,57,24.20
2006,01,30,09,58,25.70
2006,01,30,09,59,22.50
2006,01,30,10,00,20.90
2006,01,30,10,01,27.40
2006,01,30,10,02,27.40
2006,01,30,10,03,19.30
2006,01,30,10,04,20.90
2006,01,30,10,05,29.00
2006,01,30,10,06,25.70
2006,01,30,10,07,32.20
2006,01,30,10,08,24.20
2006,01,30,10,09,20.90
2006,01,30,10,10,11.30
2006,01,30,10,11,22.50
2006,01,30,10,12,19.30
2006,01,30,10,13,19.30
2006,01,30,10,14,22.50
2006,01,30,10,15,14.50
2006,01,30,10,16,22.50
2006,01,30,10,17,20.90
2006,01,30,10,18,33.80
2006,01,30,10,19,19.30
2006,01,30,10,20,22.50
2006,01,30,10,21,27.40
2006,01,30,10,22,30.60
2006,01,30,10,23,19.30
2006,01,30,10,24,25.70
2006,01,30,10,25,24.20
2006,01,30,10,26,24.20
2006,01,30,10,27,22.50
2006,01,30,10,28,24.20
2006,01,30,10,29,17.70
2006,01,30,10,30,30.60
2006,01,30,10,31,25.70
2006,01,30,10,32,29.00
2006,01,30,10,33,27.40
2006,01,30,10,34,29.00
2006,01,30,10,35,24.20
2006,01,30,10,36,19.30
2006,01,30,10,37,16.10
2006,01,30,10,38,22.50
2006,01,30,10,39,14.50
2006,01,30,10,40,16.10
2006,01,30,10,41,17.70
2006,01,30,10,42,16.10
2006,01,30,10,43,16.10
2006,01,30,10,44,22.50
2006,01,30,10,45,24.20
2006,01,30,10,46,12.90
2006,01,30,10,47,16.10
2006,01,30,10,48,19.30
2006,01,30,10,49,19.30
2006,01,30,10,50,17.70
2006,01,30,10,51,27.40
2006,01,30,10,52,20.90
2006,01,30,10,53,19.30
2006,01,30,10,54,25.70
2006,01,30,10,55,25.70
2006,01,30,10,56,17.70
2006,01,30,10,57,20.90
2006,01,30,10,58,19.30
2006,01,30,10,59,25.70
2006,01,30,11,00,35.40
2006,01,30,11,01,22.50
2006,01,30,11,02,33.80
2006,01,30,11,03,27.40
2006,01,30,11,04,27.40
2006,01,30,11,05,30.60
2006,01,30,11,06,27.40
2006,01,30,11,07,20.90
2006,01,30,11,08,37.00
2006,01,30,11,09,29.00
2006,01,30,11,10,24.20
2006,01,30,11,11,30.60
2006,01,30,11,12,37.00
2006,01,30,11,13,40.20
2006,01,30,11,14,33.80
2006,01,30,11,15,27.40
2006,01,30,11,16,25.70
2006,01,30,11,17,29.00
2006,01,30,11,18,32.20
2006,01,30,11,19,25.70
2006,01,30,11,20,32.20
2006,01,30,11,21,24.20
2006,01,30,11,22,29.00
2006,01,30,11,23,24.20
2006,01,30,11,24,27.40
2006,01,30,11,25,27.40
2006,01,30,11,26,32.20
2006,01,30,11,27,29.00
2006,01,30,11,28,29.00
2006,01,30,11,29,38.60
2006,01,30,11,30,30.60
2006,01,30,11,31,32.20
2006,01,30,11,32,32.20
2006,01,30,11,33,20.90
2006,01,30,11,34,30.60
2006,01,30,11,35,24.20
2006,01,30,11,36,24.20
2006,01,30,11,37,24.20
2006,01,30,11,38,30.60
2006,01,30,11,39,29.00
2006,01,30,11,40,24.20
2006,01,30,11,41,24.20
2006,01,30,11,42,32.20
2006,01,30,11,43,20.90
2006,01,30,11,44,25.70
2006,01,30,11,45,19.30
2006,01,30,11,46,17.70
2006,01,30,11,47,17.70
2006,01,30,11,48,16.10
2006,01,30,11,49,12.90
2006,01,30,11,50,9.60
2006,01,30,11,51,20.90
2006,01,30,11,52,19.30
2006,01,30,11,53,19.30
2006,01,30,11,54,27.40
2006,01,30,11,55,19.30
2006,01,30,11,56,16.10
2006,01,30,11,57,17.70
2006,01,30,11,58,29.00
2006,01,30,11,59,24.20
2006,01,30,12,00,30.60
2006,01,30,12,01,32.20
2006,01,30,12,02,16.10
2006,01,30,12,03,17.70
2006,01,30,12,04,29.00
2006,01,30,12,05,33.80
2006,01,30,12,06,25.70
2006,01,30,12,07,24.20
2006,01,30,12,08,17.70
2006,01,30,12,09,25.70
2006,01,30,12,10,25.70
2006,01,30,12,11,20.90
2006,01,30,12,12,29.00
2006,01,30,12,13,33.80
2006,01,30,12,14,38.60
2006,01,30,12,15,37.00
2006,01,30,12,16,37.00
2006,01,30,12,17,24.20
2006,01,30,12,18,19.30
2006,01,30,12,19,22.50
2006,01,30,12,20,25.70
2006,01,30,12,21,27.40
2006,01,30,12,22,22.50
2006,01,30,12,23,20.90
2006,01,30,12,24,16.10
2006,01,30,12,25,19.30
2006,01,30,12,26,29.00
2006,01,30,12,27,25.70
2006,01,30,12,28,22.50
2006,01,30,12,29,33.80
2006,01,30,12,30,25.70
2006,01,30,12,31,19.30
2006,01,30,12,32,20.90
2006,01,30,12,33,19.30
2006,01,30,12,34,25.70
2006,01,30,12,35,30.60
2006,01,30,12,36,24.20
2006,01,30,12,37,29.00
2006,01,30,12,38,27.40
2006,01,30,12,39,35.40
2006,01,30,12,40,25.70
2006,01,30,12,41,19.30
2006,01,30,12,42,16.10
2006,01,30,12,43,33.80
2006,01,30,12,44,29.00
2006,01,30,12,45,24.20
2006,01,30,12,46,25.70
2006,01,30,12,47,30.60
2006,01,30,12,48,35.40
2006,01,30,12,49,20.90
2006,01,30,12,50,14.50
2006,01,30,12,51,20.90
2006,01,30,12,52,24.20
2006,01,30,12,53,22.50
2006,01,30,12,54,20.90
2006,01,30,12,55,19.30
2006,01,30,12,56,19.30
2006,01,30,12,57,19.30
2006,01,30,12,58,19.30
2006,01,30,12,59,20.90
2006,01,30,13,00,29.00
2006,01,30,13,01,14.50
2006,01,30,13,02,22.50
2006,01,30,13,03,30.60
2006,01,30,13,04,22.50
2006,01,30,13,05,24.20
2006,01,30,13,06,20.90
2006,01,30,13,07,27.40
2006,01,30,13,08,30.60
2006,01,30,13,09,32.20
2006,01,30,13,10,29.00
2006,01,30,13,11,30.60
2006,01,30,13,12,33.80
2006,01,30,13,13,24.20
2006,01,30,13,14,32.20
2006,01,30,13,15,30.60
2006,01,30,13,16,30.60
2006,01,30,13,17,17.70
2006,01,30,13,18,19.30
2006,01,30,13,19,38.60
2006,01,30,13,20,29.00
2006,01,30,13,21,30.60
2006,01,30,13,22,30.60
2006,01,30,13,23,32.20
2006,01,30,13,24,20.90
2006,01,30,13,25,11.30
2006,01,30,13,26,25.70
2006,01,30,13,27,27.40
2006,01,30,13,28,24.20
2006,01,30,13,29,30.60
2006,01,30,13,30,32.20
2006,01,30,13,31,38.60
2006,01,30,13,32,27.40
2006,01,30,13,33,27.40
2006,01,30,13,34,19.30
2006,01,30,13,35,30.60
2006,01,30,13,36,27.40
2006,01,30,13,37,32.20
2006,01,30,13,38,25.70
2006,01,30,13,39,32.20
2006,01,30,13,40,33.80
2006,01,30,13,41,29.00
2006,01,30,13,42,29.00
2006,01,30,13,43,32.20
2006,01,30,13,44,40.20
2006,01,30,13,45,33.80
2006,01,30,13,46,41.80
2006,01,30,13,47,30.60
2006,01,30,13,48,25.70
2006,01,30,13,49,32.20
2006,01,30,13,50,30.60
2006,01,30,13,51,20.90
2006,01,30,13,52,19.30
2006,01,30,13,53,19.30
2006,01,30,13,54,24.20
2006,01,30,13,55,29.00
2006,01,30,13,56,20.90
2006,01,30,13,57,29.00
2006,01,30,13,58,22.50
2006,01,30,13,59,24.20
2006,01,30,14,00,25.70
2006,01,30,14,01,25.70
2006,01,30,14,02,24.20
2006,01,30,14,03,40.20
2006,01,30,14,04,22.50
2006,01,30,14,05,14.50
2006,01,30,14,06,32.20
2006,01,30,14,07,24.20
2006,01,30,14,08,27.40
2006,01,30,14,09,14.50
2006,01,30,14,10,11.30
2006,01,30,14,11,11.30
2006,01,30,14,12,20.90
2006,01,30,14,13,17.70
2006,01,30,14,14,16.10
2006,01,30,14,15,9.60
2006,01,30,14,16,20.90
2006,01,30,14,17,14.50
2006,01,30,14,18,16.10
2006,01,30,14,19,9.60
2006,01,30,14,20,20.90
2006,01,30,14,21,22.50
2006,01,30,14,22,14.50
2006,01,30,14,23,14.50
2006,01,30,14,24,19.30
2006,01,30,14,25,22.50
2006,01,30,14,26,16.10
2006,01,30,14,27,27.40
2006,01,30,14,28,20.90
2006,01,30,14,29,22.50
2006,01,30,14,30,19.30
2006,01,30,14,31,24.20
2006,01,30,14,32,24.20
2006,01,30,14,33,27.40
2006,01,30,14,34,32.20
2006,01,30,14,35,20.90
2006,01,30,14,36,22.50
2006,01,30,14,37,25.70
2006,01,30,14,38,19.30
2006,01,30,14,39,30.60
2006,01,30,14,40,22.50
2006,01,30,14,41,22.50
2006,01,30,14,42,32.20
2006,01,30,14,43,30.60
2006,01,30,14,44,19.30
2006,01,30,14,45,25.70
2006,01,30,14,46,29.00
2006,01,30,14,47,24.20
2006,01,30,14,48,24.20
2006,01,30,14,49,27.40
2006,01,30,14,50,24.20
2006,01,30,14,51,20.90
2006,01,30,14,52,27.40
2006,01,30,14,53,20.90
2006,01,30,14,54,22.50
2006,01,30,14,55,16.10
2006,01,30,14,56,19.30
2006,01,30,14,57,11.30
2006,01,30,14,58,9.60
2006,01,30,14,59,24.20
2006,01,30,15,00,11.30
2006,01,30,15,01,16.10
2006,01,30,15,02,19.30
2006,01,30,15,03,12.90
2006,01,30,15,04,14.50
2006,01,30,15,05,11.30
2006,01,30,15,06,16.10
2006,01,30,15,07,24.20
2006,01,30,15,08,20.90
2006,01,30,15,09,17.70
2006,01,30,15,10,14.50
2006,01,30,15,11,11.30
2006,01,30,15,12,20.90
2006,01,30,15,13,14.50
2006,01,30,15,14,16.10
2006,01,30,15,15,19.30
2006,01,30,15,16,19.30
2006,01,30,15,17,16.10
2006,01,30,15,18,29.00
2006,01,30,15,19,27.40
2006,01,30,15,20,25.70
2006,01,30,15,21,20.90
2006,01,30,15,22,24.20
2006,01,30,15,23,22.50
2006,01,30,15,24,17.70
2006,01,30,15,25,16.10
2006,01,30,15,26,17.70
2006,01,30,15,27,22.50
2006,01,30,15,28,16.10
2006,01,30,15,29,22.50
2006,01,30,15,30,19.30
2006,01,30,15,31,16.10
2006,01,30,15,32,25.70
2006,01,30,15,33,17.70
2006,01,30,15,34,17.70
2006,01,30,15,35,14.50
2006,01,30,15,36,11.30
2006,01,30,15,37,9.60
2006,01,30,15,38,11.30
2006,01,30,15,39,16.10
2006,01,30,15,40,11.30
2006,01,30,15,41,14.50
2006,01,30,15,42,16.10
2006,01,30,15,43,17.70
2006,01,30,15,44,12.90
2006,01,30,15,45,17.70
2006,01,30,15,46,16.10
2006,01,30,15,47,12.90
2006,01,30,15,48,14.50
2006,01,30,15,49,20.90
2006,01,30,15,50,16.10
2006,01,30,15,51,14.50
2006,01,30,15,52,11.30
2006,01,30,15,53,17.70
2006,01,30,15,54,20.90
2006,01,30,15,55,19.30
2006,01,30,15,56,11.30
2006,01,30,15,57,14.50
2006,01,30,15,58,9.60
2006,01,30,15,59,11.30
2006,01,30,16,00,8.10
2006,01,30,16,01,9.60
2006,01,30,16,02,11.30
2006,01,30,16,03,20.90
2006,01,30,16,04,16.10
2006,01,30,16,05,9.60
2006,01,30,16,06,11.30
2006,01,30,16,07,19.30
2006,01,30,16,08,19.30
2006,01,30,16,09,16.10
2006,01,30,16,10,19.30
2006,01,30,16,11,16.10
2006,01,30,16,12,20.90
2006,01,30,16,13,19.30
2006,01,30,16,14,19.30
2006,01,30,16,15,17.70
2006,01,30,16,16,11.30
2006,01,30,16,17,11.30
2006,01,30,16,18,9.60
2006,01,30,16,19,24.20
2006,01,30,16,20,14.50
2006,01,30,16,21,11.30
2006,01,30,16,22,20.90
2006,01,30,16,23,11.30
2006,01,30,16,24,20.90
2006,01,30,16,25,17.70
2006,01,30,16,26,16.10
2006,01,30,16,27,17.70
2006,01,30,16,28,16.10
2006,01,30,16,29,14.50
2006,01,30,16,30,16.10
2006,01,30,16,31,11.30
2006,01,30,16,32,14.50
2006,01,30,16,33,27.40
2006,01,30,16,34,14.50
2006,01,30,16,35,27.40
2006,01,30,16,36,17.70
2006,01,30,16,37,24.20
2006,01,30,16,38,20.90
2006,01,30,16,39,20.90
2006,01,30,16,40,16.10
2006,01,30,16,41,24.20
2006,01,30,16,42,17.70
2006,01,30,16,43,19.30
2006,01,30,16,44,8.10
2006,01,30,16,45,11.30
2006,01,30,16,46,25.70
2006,01,30,16,47,22.50
2006,01,30,16,48,16.10
2006,01,30,16,49,11.30
2006,01,30,16,50,19.30
2006,01,30,16,51,16.10
2006,01,30,16,52,9.60
2006,01,30,16,53,11.30
2006,01,30,16,54,20.90
2006,01,30,16,55,14.50
2006,01,30,16,56,14.50
2006,01,30,16,57,9.60
2006,01,30,16,58,9.60
2006,01,30,16,59,8.10
2006,01,30,17,00,8.10
2006,01,30,17,01,16.10
2006,01,30,17,02,8.10
2006,01,30,17,03,14.50
2006,01,30,17,04,6.40
2006,01,30,17,05,11.30
2006,01,30,17,06,8.10
2006,01,30,17,07,6.40
2006,01,30,17,08,6.40
2006,01,30,17,09,9.60
2006,01,30,17,10,14.50
2006,01,30,17,11,8.10
2006,01,30,17,12,11.30
2006,01,30,17,13,9.60
2006,01,30,17,14,6.40
2006,01,30,17,15,14.50
2006,01,30,17,16,17.70
2006,01,30,17,17,22.50
2006,01,30,17,18,17.70
2006,01,30,17,19,20.90
2006,01,30,17,20,14.50
2006,01,30,17,21,11.30
2006,01,30,17,22,11.30
2006,01,30,17,23,12.90
2006,01,30,17,24,17.70
2006,01,30,17,25,9.60
2006,01,30,17,26,9.60
2006,01,30,17,27,16.10
2006,01,30,17,28,20.90
2006,01,30,17,29,19.30
2006,01,30,17,30,19.30
2006,01,30,17,31,16.10
2006,01,30,17,32,17.70
2006,01,30,17,33,17.70
2006,01,30,17,34,11.30